Time,TemperatureF,DewpointF,PressureIn,WindDirection,WindDirectionDegrees,WindSpeedMPH,WindSpeedGustMPH,Humidity,HourlyPrecipIn,Conditions,Clouds,dailyrainin,SoftwareType,DateUTC
2013-02-24 00:04:00,25.1,18.0,29.74,NW,315,0.0,0.0,77,0.00,,,0.00,TxWx,2013-02-24 06:04:00,
2013-02-24 00:09:00,25.0,18.0,29.74,NNE,13,0.0,0.0,76,0.00,,,0.00,TxWx,2013-02-24 06:09:00,
2013-02-24 00:14:00,24.9,18.0,29.73,NNE,14,0.0,0.0,77,0.00,,,0.00,TxWx,2013-02-24 06:14:00,
2013-02-24 00:20:00,24.8,18.0,29.74,NNE,13,0.0,0.0,77,0.00,,,0.00,TxWx,2013-02-24 06:20:00,
2013-02-24 00:25:00,24.6,18.0,29.74,NNE,22,0.0,0.0,77,0.00,,,0.00,TxWx,2013-02-24 06:25:00,
2013-02-24 00:30:00,24.5,18.0,29.74,NE,48,0.0,0.0,78,0.00,,,0.00,TxWx,2013-02-24 06:30:00,
2013-02-24 00:35:00,24.3,17.0,29.74,NNE,16,0.0,0.0,78,0.00,,,0.00,TxWx,2013-02-24 06:35:00,
2013-02-24 00:40:00,24.2,17.0,29.74,NW,315,0.0,0.0,78,0.00,,,0.00,TxWx,2013-02-24 06:40:00,
2013-02-24 00:45:00,24.0,17.0,29.74,NW,313,0.0,0.0,79,0.00,,,0.00,TxWx,2013-02-24 06:45:00,
2013-02-24 00:51:00,23.8,17.0,29.75,NW,316,0.0,0.0,79,0.00,,,0.00,TxWx,2013-02-24 06:51:00,
2013-02-24 00:56:00,23.6,17.0,29.75,North,10,0.0,0.0,79,0.00,,,0.00,TxWx,2013-02-24 06:56:00,
2013-02-24 01:01:00,23.5,16.0,29.75,North,11,0.0,0.0,79,0.00,,,0.00,TxWx,2013-02-24 07:01:00,
2013-02-24 01:06:00,23.2,17.0,29.75,North,7,0.0,0.0,80,0.00,,,0.00,TxWx,2013-02-24 07:06:00,
2013-02-24 01:12:00,23.1,17.0,29.75,North,9,0.0,0.0,80,0.00,,,0.00,TxWx,2013-02-24 07:12:00,
2013-02-24 01:17:00,22.9,17.0,29.76,NNE,28,0.0,0.0,80,0.00,,,0.00,TxWx,2013-02-24 07:17:00,
2013-02-24 01:22:00,22.8,17.0,29.75,NE,49,0.0,0.0,81,0.00,,,0.00,TxWx,2013-02-24 07:22:00,
2013-02-24 01:28:00,22.6,17.0,29.76,ESE,116,0.0,0.0,81,0.00,,,0.00,TxWx,2013-02-24 07:28:00,
2013-02-24 01:33:00,22.4,16.0,29.76,North,360,0.0,0.0,81,0.00,,,0.00,TxWx,2013-02-24 07:33:00,
2013-02-24 01:38:00,22.3,16.0,29.75,North,4,0.0,0.0,82,0.00,,,0.00,TxWx,2013-02-24 07:38:00,
2013-02-24 01:43:00,22.2,16.0,29.75,North,2,0.0,0.0,82,0.00,,,0.00,TxWx,2013-02-24 07:43:00,
2013-02-24 01:48:00,22.1,16.0,29.75,North,3,0.0,0.0,82,0.00,,,0.00,TxWx,2013-02-24 07:48:00,
2013-02-24 01:53:00,22.0,16.0,29.75,North,1,0.0,0.0,82,0.00,,,0.00,TxWx,2013-02-24 07:53:00,
2013-02-24 01:58:00,21.9,16.0,29.75,NW,314,0.0,0.0,83,0.00,,,0.00,TxWx,2013-02-24 07:58:00,
2013-02-24 02:03:00,21.8,16.0,29.75,North,4,0.0,0.0,83,0.00,,,0.00,TxWx,2013-02-24 08:03:00,
2013-02-24 02:09:00,21.7,16.0,29.75,North,1,0.0,0.0,83,0.00,,,0.00,TxWx,2013-02-24 08:09:00,
2013-02-24 02:14:00,21.6,16.0,29.75,North,2,0.0,0.0,83,0.00,,,0.00,TxWx,2013-02-24 08:14:00,
2013-02-24 02:19:00,21.3,16.0,29.76,North,2,0.0,0.0,83,0.00,,,0.00,TxWx,2013-02-24 08:19:00,
2013-02-24 02:25:00,21.1,16.0,29.76,North,2,0.0,0.0,83,0.00,,,0.00,TxWx,2013-02-24 08:25:00,
2013-02-24 02:30:00,20.9,16.0,29.76,North,2,0.0,0.0,84,0.00,,,0.00,TxWx,2013-02-24 08:30:00,
2013-02-24 02:35:00,20.9,16.0,29.76,North,4,0.0,0.0,84,0.00,,,0.00,TxWx,2013-02-24 08:35:00,
2013-02-24 02:40:00,20.8,16.0,29.76,North,6,0.0,0.0,84,0.00,,,0.00,TxWx,2013-02-24 08:40:00,
2013-02-24 02:46:00,20.7,16.0,29.76,NNE,15,0.0,0.0,84,0.00,,,0.00,TxWx,2013-02-24 08:46:00,
2013-02-24 02:51:00,20.6,16.0,29.76,North,7,0.0,0.0,85,0.00,,,0.00,TxWx,2013-02-24 08:51:00,
2013-02-24 02:56:00,20.5,15.0,29.76,North,8,0.0,0.0,85,0.00,,,0.00,TxWx,2013-02-24 08:56:00,
2013-02-24 03:01:00,20.3,15.0,29.76,North,7,0.0,0.0,85,0.00,,,0.00,TxWx,2013-02-24 09:01:00,
2013-02-24 03:07:00,20.2,15.0,29.76,North,6,0.0,0.0,85,0.00,,,0.00,TxWx,2013-02-24 09:07:00,
2013-02-24 03:12:00,20.1,15.0,29.77,North,8,0.0,0.0,85,0.00,,,0.00,TxWx,2013-02-24 09:12:00,
2013-02-24 03:17:00,20.0,15.0,29.77,North,2,0.0,0.0,86,0.00,,,0.00,TxWx,2013-02-24 09:17:00,
2013-02-24 03:22:00,20.0,15.0,29.76,North,3,0.0,0.0,86,0.00,,,0.00,TxWx,2013-02-24 09:22:00,
2013-02-24 03:27:00,20.0,15.0,29.77,North,4,0.0,0.0,86,0.00,,,0.00,TxWx,2013-02-24 09:27:00,
2013-02-24 03:33:00,20.0,15.0,29.76,NW,313,0.0,0.0,86,0.00,,,0.00,TxWx,2013-02-24 09:33:00,
2013-02-24 03:38:00,20.0,16.0,29.77,North,8,0.0,0.0,87,0.00,,,0.00,TxWx,2013-02-24 09:38:00,
2013-02-24 03:43:00,20.0,15.0,29.77,NW,314,0.0,0.0,86,0.00,,,0.00,TxWx,2013-02-24 09:43:00,
2013-02-24 03:48:00,19.8,16.0,29.77,North,1,0.0,0.0,87,0.00,,,0.00,TxWx,2013-02-24 09:48:00,
2013-02-24 03:53:00,19.6,16.0,29.77,North,0,0.0,0.0,87,0.00,,,0.00,TxWx,2013-02-24 09:53:00,
2013-02-24 03:58:00,19.5,16.0,29.78,North,0,0.0,0.0,87,0.00,,,0.00,TxWx,2013-02-24 09:58:00,
2013-02-24 04:03:00,19.5,16.0,29.78,North,353,0.0,0.0,87,0.00,,,0.00,TxWx,2013-02-24 10:03:00,
2013-02-24 04:09:00,19.5,15.0,29.78,North,360,0.0,0.0,87,0.00,,,0.00,TxWx,2013-02-24 10:09:00,
2013-02-24 04:14:00,19.3,15.0,29.78,SE,145,0.0,0.0,87,0.00,,,0.00,TxWx,2013-02-24 10:14:00,
2013-02-24 04:19:00,19.3,15.0,29.78,North,3,0.0,0.0,87,0.00,,,0.00,TxWx,2013-02-24 10:19:00,
2013-02-24 04:24:00,19.2,15.0,29.78,North,10,0.0,0.0,87,0.00,,,0.00,TxWx,2013-02-24 10:24:00,
2013-02-24 04:29:00,19.1,15.0,29.79,North,9,0.0,0.0,87,0.00,,,0.00,TxWx,2013-02-24 10:29:00,
2013-02-24 04:34:00,19.0,15.0,29.79,NW,313,0.0,0.0,87,0.00,,,0.00,TxWx,2013-02-24 10:34:00,
2013-02-24 04:40:00,18.9,15.0,29.79,SE,128,0.0,0.0,87,0.00,,,0.00,TxWx,2013-02-24 10:40:00,
2013-02-24 04:45:00,18.9,15.0,29.79,NW,316,0.0,0.0,88,0.00,,,0.00,TxWx,2013-02-24 10:45:00,
2013-02-24 04:50:00,18.9,15.0,29.79,NW,313,0.0,0.0,88,0.00,,,0.00,TxWx,2013-02-24 10:50:00,
2013-02-24 04:55:00,18.9,15.0,29.80,NW,316,0.0,0.0,88,0.00,,,0.00,TxWx,2013-02-24 10:55:00,
2013-02-24 05:00:00,18.9,15.0,29.80,NW,324,0.0,0.0,88,0.00,,,0.00,TxWx,2013-02-24 11:00:00,
2013-02-24 05:06:00,18.8,15.0,29.80,North,5,0.0,0.0,89,0.00,,,0.00,TxWx,2013-02-24 11:06:00,
2013-02-24 05:11:00,18.6,15.0,29.80,NW,315,0.0,0.0,88,0.00,,,0.00,TxWx,2013-02-24 11:11:00,
2013-02-24 05:16:00,18.6,15.0,29.80,East,95,0.0,0.0,88,0.00,,,0.00,TxWx,2013-02-24 11:16:00,
2013-02-24 05:21:00,18.4,14.0,29.80,North,5,0.0,0.0,88,0.00,,,0.00,TxWx,2013-02-24 11:21:00,
2013-02-24 05:26:00,18.4,14.0,29.81,NW,313,0.0,0.0,89,0.00,,,0.00,TxWx,2013-02-24 11:26:00,
2013-02-24 05:31:00,18.3,14.0,29.81,North,5,0.0,0.0,89,0.00,,,0.00,TxWx,2013-02-24 11:31:00,
2013-02-24 05:37:00,18.1,14.0,29.81,North,3,0.0,0.0,89,0.00,,,0.00,TxWx,2013-02-24 11:37:00,
2013-02-24 05:42:00,18.0,14.0,29.82,North,1,0.0,0.0,89,0.00,,,0.00,TxWx,2013-02-24 11:42:00,
2013-02-24 05:47:00,17.9,14.0,29.82,North,3,0.0,0.0,89,0.00,,,0.00,TxWx,2013-02-24 11:47:00,
2013-02-24 05:53:00,17.7,14.0,29.82,North,1,0.0,0.0,89,0.00,,,0.00,TxWx,2013-02-24 11:53:00,
2013-02-24 05:58:00,17.6,14.0,29.82,North,0,0.0,0.0,89,0.00,,,0.00,TxWx,2013-02-24 11:58:00,
2013-02-24 06:03:00,17.5,14.0,29.83,North,0,0.0,0.0,90,0.00,,,0.00,TxWx,2013-02-24 12:03:00,
2013-02-24 06:08:00,17.4,13.0,29.83,NNE,12,0.0,0.0,90,0.00,,,0.00,TxWx,2013-02-24 12:08:00,
2013-02-24 06:13:00,17.3,13.0,29.83,North,9,0.0,0.0,90,0.00,,,0.00,TxWx,2013-02-24 12:13:00,
2013-02-24 06:18:00,17.3,14.0,29.82,North,7,0.0,0.0,90,0.00,,,0.00,TxWx,2013-02-24 12:18:00,
2013-02-24 06:23:00,17.2,14.0,29.82,NNE,13,0.0,0.0,90,0.00,,,0.00,TxWx,2013-02-24 12:23:00,
2013-02-24 06:28:00,17.3,14.0,29.82,ENE,66,0.0,0.0,90,0.00,,,0.00,TxWx,2013-02-24 12:28:00,
2013-02-24 06:34:00,17.2,14.0,29.83,NNE,13,0.0,0.0,90,0.00,,,0.00,TxWx,2013-02-24 12:34:00,
2013-02-24 06:42:00,17.0,14.0,29.83,North,10,0.0,0.0,90,0.00,,,0.00,TxWx,2013-02-24 12:42:00,
2013-02-24 06:47:00,17.0,14.0,29.84,NNE,12,0.0,0.0,90,0.00,,,0.00,TxWx,2013-02-24 12:47:00,
2013-02-24 06:52:00,17.2,14.0,29.84,NNE,16,0.0,0.0,91,0.00,,,0.00,TxWx,2013-02-24 12:52:00,
2013-02-24 06:57:00,17.3,14.0,29.84,NNE,12,0.0,0.0,90,0.00,,,0.00,TxWx,2013-02-24 12:57:00,
2013-02-24 07:02:00,17.4,14.0,29.84,North,11,0.0,0.0,90,0.00,,,0.00,TxWx,2013-02-24 13:02:00,
2013-02-24 07:08:00,17.4,13.0,29.84,NNE,15,0.0,0.0,90,0.00,,,0.00,TxWx,2013-02-24 13:08:00,
2013-02-24 07:13:00,17.6,14.0,29.84,NNE,15,0.0,0.0,90,0.00,,,0.00,TxWx,2013-02-24 13:13:00,
2013-02-24 07:18:00,17.8,14.0,29.85,NNE,13,0.0,0.0,89,0.00,,,0.00,TxWx,2013-02-24 13:18:00,
2013-02-24 07:23:00,18.0,14.0,29.85,North,9,0.0,0.0,89,0.00,,,0.00,TxWx,2013-02-24 13:23:00,
2013-02-24 07:28:00,18.1,14.0,29.85,NNE,12,0.0,0.0,88,0.00,,,0.00,TxWx,2013-02-24 13:28:00,
2013-02-24 07:34:00,18.3,14.0,29.85,NNE,13,0.0,0.0,88,0.00,,,0.00,TxWx,2013-02-24 13:34:00,
2013-02-24 07:39:00,18.5,14.0,29.85,NNE,13,0.0,0.0,88,0.00,,,0.00,TxWx,2013-02-24 13:39:00,
2013-02-24 07:44:00,18.7,15.0,29.86,NW,313,0.0,0.0,87,0.00,,,0.00,TxWx,2013-02-24 13:44:00,
2013-02-24 07:49:00,18.8,15.0,29.86,NNE,14,0.0,0.0,87,0.00,,,0.00,TxWx,2013-02-24 13:49:00,
2013-02-24 07:54:00,19.0,15.0,29.86,NNE,15,0.0,0.0,86,0.00,,,0.00,TxWx,2013-02-24 13:54:00,
2013-02-24 08:00:00,19.3,14.0,29.86,NNE,13,0.0,0.0,86,0.00,,,0.00,TxWx,2013-02-24 14:00:00,
2013-02-24 08:05:00,19.3,14.0,29.87,NNE,21,0.0,0.0,85,0.00,,,0.00,TxWx,2013-02-24 14:05:00,
2013-02-24 08:10:00,19.3,14.0,29.87,North,9,0.0,0.0,84,0.00,,,0.00,TxWx,2013-02-24 14:10:00,
2013-02-24 08:16:00,19.4,14.0,29.87,SE,142,0.0,0.0,84,0.00,,,0.00,TxWx,2013-02-24 14:16:00,
2013-02-24 08:21:00,20.2,15.0,29.87,NW,315,0.0,0.0,84,0.00,,,0.00,TxWx,2013-02-24 14:21:00,
2013-02-24 08:26:00,20.5,16.0,29.87,NNE,14,0.0,0.0,83,0.00,,,0.00,TxWx,2013-02-24 14:26:00,
2013-02-24 08:31:00,21.4,15.0,29.87,NNE,19,0.0,0.0,82,0.00,,,0.00,TxWx,2013-02-24 14:31:00,
2013-02-24 08:36:00,21.9,16.0,29.87,South,177,0.0,0.0,81,0.00,,,0.00,TxWx,2013-02-24 14:36:00,
2013-02-24 08:41:00,22.4,16.0,29.87,NE,55,0.0,0.0,80,0.00,,,0.00,TxWx,2013-02-24 14:41:00,
2013-02-24 08:47:00,22.8,16.0,29.87,NNE,14,0.0,0.0,79,0.00,,,0.00,TxWx,2013-02-24 14:47:00,
2013-02-24 08:52:00,23.4,16.0,29.87,NNE,16,0.0,0.0,78,0.00,,,0.00,TxWx,2013-02-24 14:52:00,
2013-02-24 08:57:00,23.9,17.0,29.87,NNE,21,0.0,0.0,77,0.00,,,0.00,TxWx,2013-02-24 14:57:00,
2013-02-24 09:03:00,24.6,17.0,29.87,NNE,25,0.0,0.0,76,0.00,,,0.00,TxWx,2013-02-24 15:03:00,
2013-02-24 09:08:00,25.3,17.0,29.87,NE,52,0.0,0.0,75,0.00,,,0.00,TxWx,2013-02-24 15:08:00,
2013-02-24 09:13:00,25.6,18.0,29.87,ENE,57,0.0,0.0,73,0.00,,,0.00,TxWx,2013-02-24 15:13:00,
2013-02-24 09:18:00,26.0,17.0,29.87,ENE,57,0.0,0.0,72,0.00,,,0.00,TxWx,2013-02-24 15:18:00,
2013-02-24 09:23:00,26.1,17.0,29.87,ENE,57,0.0,0.0,71,0.00,,,0.00,TxWx,2013-02-24 15:23:00,
2013-02-24 09:28:00,26.5,18.0,29.87,NE,52,0.0,0.0,70,0.00,,,0.00,TxWx,2013-02-24 15:28:00,
2013-02-24 09:34:00,27.1,17.0,29.87,ENE,57,0.0,0.0,70,0.00,,,0.00,TxWx,2013-02-24 15:34:00,
2013-02-24 09:39:00,27.3,17.0,29.88,NE,52,0.0,0.0,68,0.00,,,0.00,TxWx,2013-02-24 15:39:00,
2013-02-24 09:47:00,28.0,17.0,29.88,North,11,0.0,0.0,67,0.00,,,0.00,TxWx,2013-02-24 15:47:00,
2013-02-24 09:53:00,28.0,17.0,29.88,NE,56,0.0,0.0,66,0.00,,,0.00,TxWx,2013-02-24 15:53:00,
2013-02-24 09:58:00,28.4,17.0,29.88,NE,56,0.0,0.0,66,0.00,,,0.00,TxWx,2013-02-24 15:58:00,
2013-02-24 10:03:00,28.7,18.0,29.88,NNE,23,0.0,0.0,65,0.00,,,0.00,TxWx,2013-02-24 16:03:00,
2013-02-24 10:08:00,28.9,18.0,29.88,NNE,25,0.0,0.0,65,0.00,,,0.00,TxWx,2013-02-24 16:08:00,
2013-02-24 10:14:00,29.0,17.0,29.89,NNE,21,0.0,0.0,64,0.00,,,0.00,TxWx,2013-02-24 16:14:00,
2013-02-24 10:19:00,29.1,17.0,29.89,ENE,60,0.0,0.0,63,0.00,,,0.00,TxWx,2013-02-24 16:19:00,
2013-02-24 10:24:00,29.2,17.0,29.89,ENE,59,0.0,0.0,62,0.00,,,0.00,TxWx,2013-02-24 16:24:00,
2013-02-24 10:29:00,29.2,17.0,29.89,ENE,58,0.0,0.0,63,0.00,,,0.00,TxWx,2013-02-24 16:29:00,
2013-02-24 10:34:00,29.3,17.0,29.89,NNE,15,0.0,0.0,63,0.00,,,0.00,TxWx,2013-02-24 16:34:00,
2013-02-24 10:39:00,29.8,17.0,29.90,ENE,60,0.0,0.0,61,0.00,,,0.00,TxWx,2013-02-24 16:39:00,
2013-02-24 10:44:00,29.8,17.0,29.89,ENE,60,0.0,0.0,61,0.00,,,0.00,TxWx,2013-02-24 16:44:00,
2013-02-24 10:50:00,30.4,18.0,29.89,NE,54,0.0,0.0,62,0.00,,,0.00,TxWx,2013-02-24 16:50:00,
2013-02-24 10:55:00,30.8,18.0,29.89,NE,35,0.0,0.0,61,0.00,,,0.00,TxWx,2013-02-24 16:55:00,
2013-02-24 11:00:00,31.0,18.0,29.90,NE,51,0.0,0.0,60,0.00,,,0.00,TxWx,2013-02-24 17:00:00,
2013-02-24 11:05:00,30.8,17.0,29.90,NE,48,0.0,0.0,59,0.00,,,0.00,TxWx,2013-02-24 17:05:00,
2013-02-24 11:10:00,30.4,16.0,29.90,ENE,59,0.0,0.0,59,0.00,,,0.00,TxWx,2013-02-24 17:10:00,
2013-02-24 11:15:00,31.2,18.0,29.90,NE,56,0.0,0.0,60,0.00,,,0.00,TxWx,2013-02-24 17:15:00,
2013-02-24 11:20:00,30.7,17.0,29.90,ENE,60,0.0,0.0,59,0.00,,,0.00,TxWx,2013-02-24 17:20:00,
2013-02-24 11:26:00,31.1,18.0,29.90,NE,56,0.0,0.0,60,0.00,,,0.00,TxWx,2013-02-24 17:26:00,
2013-02-24 11:31:00,31.5,17.0,29.89,ENE,59,0.0,0.0,59,0.00,,,0.00,TxWx,2013-02-24 17:31:00,
2013-02-24 11:36:00,31.7,18.0,29.90,NE,51,0.0,0.0,59,0.00,,,0.00,TxWx,2013-02-24 17:36:00,
2013-02-24 11:41:00,31.9,18.0,29.90,ENE,60,0.0,0.0,59,0.00,,,0.00,TxWx,2013-02-24 17:41:00,
2013-02-24 11:47:00,31.3,17.0,29.90,ENE,59,0.0,0.0,59,0.00,,,0.00,TxWx,2013-02-24 17:47:00,
2013-02-24 11:52:00,31.7,18.0,29.90,ENE,60,0.0,0.0,59,0.00,,,0.00,TxWx,2013-02-24 17:52:00,
2013-02-24 11:57:00,31.9,18.0,29.90,ENE,60,0.0,0.0,59,0.00,,,0.00,TxWx,2013-02-24 17:57:00,
2013-02-24 12:02:00,31.4,17.0,29.90,ENE,59,0.0,0.0,59,0.00,,,0.00,TxWx,2013-02-24 18:02:00,
2013-02-24 12:07:00,31.9,18.0,29.89,ENE,60,0.0,0.0,58,0.00,,,0.00,TxWx,2013-02-24 18:07:00,
2013-02-24 12:13:00,32.3,18.0,29.89,ENE,58,0.0,0.0,58,0.00,,,0.00,TxWx,2013-02-24 18:13:00,
2013-02-24 12:18:00,32.1,17.0,29.89,ENE,57,0.0,0.0,57,0.00,,,0.00,TxWx,2013-02-24 18:18:00,
2013-02-24 12:23:00,32.3,17.0,29.89,NE,52,0.0,0.0,57,0.00,,,0.00,TxWx,2013-02-24 18:23:00,
2013-02-24 12:29:00,32.2,17.0,29.89,ENE,60,0.0,0.0,57,0.00,,,0.00,TxWx,2013-02-24 18:29:00,
2013-02-24 12:34:00,32.3,18.0,29.89,ENE,61,0.0,0.0,58,0.00,,,0.00,TxWx,2013-02-24 18:34:00,
2013-02-24 12:39:00,32.7,18.0,29.89,NE,54,0.0,0.0,57,0.00,,,0.01,TxWx,2013-02-24 18:39:00,
2013-02-24 12:44:00,33.6,19.0,29.88,NE,56,0.0,0.0,57,0.00,,,0.01,TxWx,2013-02-24 18:44:00,
2013-02-24 12:49:00,33.2,18.0,29.88,ENE,62,0.0,0.0,56,0.00,,,0.01,TxWx,2013-02-24 18:49:00,
2013-02-24 12:55:00,33.2,18.0,29.88,ENE,60,0.0,0.0,56,0.00,,,0.01,TxWx,2013-02-24 18:55:00,
2013-02-24 13:00:00,33.2,18.0,29.88,ENE,61,0.0,0.0,56,0.00,,,0.01,TxWx,2013-02-24 19:00:00,
2013-02-24 13:05:00,33.8,19.0,29.88,ENE,60,0.0,0.0,56,0.00,,,0.01,TxWx,2013-02-24 19:05:00,
2013-02-24 13:10:00,33.7,18.0,29.88,NW,317,0.0,0.0,54,0.00,,,0.01,TxWx,2013-02-24 19:10:00,
2013-02-24 13:15:00,34.0,19.0,29.88,ENE,57,0.0,0.0,56,0.00,,,0.01,TxWx,2013-02-24 19:15:00,
2013-02-24 13:20:00,34.2,19.0,29.88,ENE,59,0.0,0.0,56,0.00,,,0.01,TxWx,2013-02-24 19:20:00,
2013-02-24 13:25:00,33.7,18.0,29.88,NW,319,0.0,0.0,54,0.00,,,0.01,TxWx,2013-02-24 19:25:00,
2013-02-24 13:30:00,34.2,18.0,29.88,NW,322,0.0,0.0,55,0.00,,,0.01,TxWx,2013-02-24 19:30:00,
2013-02-24 13:35:00,34.5,19.0,29.88,NE,48,0.0,0.0,55,0.00,,,0.01,TxWx,2013-02-24 19:35:00,
2013-02-24 13:41:00,34.4,19.0,29.88,ENE,58,0.0,0.0,55,0.00,,,0.01,TxWx,2013-02-24 19:41:00,
2013-02-24 13:46:00,34.4,18.0,29.88,ENE,59,0.0,0.0,54,0.00,,,0.01,TxWx,2013-02-24 19:46:00,
2013-02-24 13:51:00,34.2,18.0,29.88,ENE,60,0.0,0.0,54,0.00,,,0.01,TxWx,2013-02-24 19:51:00,
2013-02-24 13:57:00,34.3,18.0,29.88,ENE,58,0.0,0.0,54,0.00,,,0.01,TxWx,2013-02-24 19:57:00,
2013-02-24 14:02:00,34.4,18.0,29.88,NW,315,0.0,0.0,54,0.00,,,0.01,TxWx,2013-02-24 20:02:00,
2013-02-24 14:07:00,35.0,19.0,29.87,ENE,61,0.0,0.0,55,0.00,,,0.01,TxWx,2013-02-24 20:07:00,
2013-02-24 14:12:00,34.8,19.0,29.88,ENE,61,0.0,0.0,54,0.00,,,0.01,TxWx,2013-02-24 20:12:00,
2013-02-24 14:17:00,35.1,19.0,29.87,NW,313,0.0,0.0,54,0.00,,,0.01,TxWx,2013-02-24 20:17:00,
2013-02-24 14:23:00,34.9,19.0,29.88,ENE,60,0.0,0.0,53,0.00,,,0.01,TxWx,2013-02-24 20:23:00,
2013-02-24 14:28:00,35.1,19.0,29.88,ENE,59,0.0,0.0,54,0.00,,,0.01,TxWx,2013-02-24 20:28:00,
2013-02-24 14:33:00,35.2,19.0,29.88,NE,47,0.0,0.0,55,0.00,,,0.01,TxWx,2013-02-24 20:33:00,
2013-02-24 14:38:00,35.3,19.0,29.87,ENE,62,0.0,0.0,53,0.00,,,0.01,TxWx,2013-02-24 20:38:00,
2013-02-24 14:43:00,35.7,19.0,29.87,NW,315,0.0,0.0,52,0.00,,,0.01,TxWx,2013-02-24 20:43:00,
2013-02-24 14:48:00,36.5,20.0,29.87,NE,52,0.0,0.0,53,0.00,,,0.01,TxWx,2013-02-24 20:48:00,
2013-02-24 14:54:00,35.6,19.0,29.88,NW,314,0.0,0.0,52,0.00,,,0.01,TxWx,2013-02-24 20:54:00,
2013-02-24 14:59:00,35.3,18.0,29.88,NNE,13,0.0,0.0,53,0.00,,,0.01,TxWx,2013-02-24 20:59:00,
2013-02-24 15:04:00,35.7,19.0,29.88,NNE,17,0.0,0.0,53,0.00,,,0.01,TxWx,2013-02-24 21:04:00,
2013-02-24 15:10:00,36.4,20.0,29.88,NNW,331,0.0,0.0,53,0.00,,,0.01,TxWx,2013-02-24 21:10:00,
2013-02-24 15:15:00,35.6,19.0,29.88,North,8,0.0,0.0,53,0.00,,,0.01,TxWx,2013-02-24 21:15:00,
2013-02-24 15:20:00,35.9,20.0,29.88,ENE,60,0.0,0.0,53,0.00,,,0.01,TxWx,2013-02-24 21:20:00,
2013-02-24 15:25:00,35.6,19.0,29.88,ENE,57,0.0,0.0,53,0.00,,,0.01,TxWx,2013-02-24 21:25:00,
2013-02-24 15:31:00,36.2,19.0,29.88,NE,51,0.0,0.0,52,0.00,,,0.01,TxWx,2013-02-24 21:31:00,
2013-02-24 15:36:00,36.0,19.0,29.88,North,4,0.0,0.0,52,0.00,,,0.01,TxWx,2013-02-24 21:36:00,
2013-02-24 15:41:00,36.5,20.0,29.88,NW,313,0.0,0.0,53,0.00,,,0.01,TxWx,2013-02-24 21:41:00,
2013-02-24 15:46:00,36.2,20.0,29.88,WNW,289,0.0,0.0,53,0.00,,,0.01,TxWx,2013-02-24 21:46:00,
2013-02-24 15:51:00,35.7,20.0,29.88,ENE,63,0.0,0.0,53,0.00,,,0.01,TxWx,2013-02-24 21:51:00,
2013-02-24 15:57:00,35.6,20.0,29.88,ENE,57,0.0,0.0,54,0.00,,,0.01,TxWx,2013-02-24 21:57:00,
2013-02-24 16:02:00,35.4,19.0,29.89,ENE,57,0.0,0.0,55,0.00,,,0.01,TxWx,2013-02-24 22:02:00,
2013-02-24 16:07:00,35.7,21.0,29.89,NNE,19,0.0,0.0,56,0.00,,,0.01,TxWx,2013-02-24 22:07:00,
2013-02-24 16:12:00,35.6,21.0,29.89,NE,53,0.0,0.0,56,0.00,,,0.01,TxWx,2013-02-24 22:12:00,
2013-02-24 16:18:00,35.3,20.0,29.89,NNE,19,0.0,0.0,56,0.00,,,0.01,TxWx,2013-02-24 22:18:00,
2013-02-24 16:23:00,35.5,21.0,29.89,NNE,14,0.0,0.0,56,0.00,,,0.01,TxWx,2013-02-24 22:23:00,
2013-02-24 16:28:00,35.0,20.0,29.89,NE,46,0.0,0.0,56,0.00,,,0.01,TxWx,2013-02-24 22:28:00,
2013-02-24 16:33:00,35.2,20.0,29.89,NE,53,0.0,0.0,56,0.00,,,0.01,TxWx,2013-02-24 22:33:00,
2013-02-24 16:38:00,35.4,20.0,29.89,ENE,58,0.0,0.0,56,0.00,,,0.01,TxWx,2013-02-24 22:38:00,
2013-02-24 16:44:00,35.3,20.0,29.89,NNE,16,0.0,0.0,57,0.00,,,0.01,TxWx,2013-02-24 22:44:00,
2013-02-24 16:49:00,35.1,20.0,29.89,North,10,0.0,0.0,57,0.00,,,0.01,TxWx,2013-02-24 22:49:00,
2013-02-24 16:54:00,34.9,20.0,29.90,NNE,14,0.0,0.0,58,0.00,,,0.01,TxWx,2013-02-24 22:54:00,
2013-02-24 16:59:00,34.7,21.0,29.90,NE,47,0.0,0.0,58,0.00,,,0.01,TxWx,2013-02-24 22:59:00,
2013-02-24 17:04:00,34.6,21.0,29.90,North,7,0.0,0.0,59,0.00,,,0.01,TxWx,2013-02-24 23:04:00,
2013-02-24 17:09:00,34.3,20.0,29.90,North,4,0.0,0.0,60,0.00,,,0.01,TxWx,2013-02-24 23:09:00,
2013-02-24 17:15:00,33.9,21.0,29.90,North,8,0.0,0.0,60,0.00,,,0.01,TxWx,2013-02-24 23:15:00,
2013-02-24 17:20:00,33.8,21.0,29.90,NNW,345,0.0,0.0,60,0.00,,,0.01,TxWx,2013-02-24 23:20:00,
2013-02-24 17:25:00,33.7,21.0,29.90,NNW,345,0.0,0.0,61,0.00,,,0.01,TxWx,2013-02-24 23:25:00,
2013-02-24 17:30:00,33.4,20.0,29.90,North,349,0.0,0.0,61,0.00,,,0.01,TxWx,2013-02-24 23:30:00,
2013-02-24 17:36:00,33.1,20.0,29.90,North,349,0.0,0.0,62,0.00,,,0.01,TxWx,2013-02-24 23:36:00,
2013-02-24 17:41:00,32.8,21.0,29.90,NNW,348,0.0,0.0,63,0.00,,,0.01,TxWx,2013-02-24 23:41:00,
2013-02-24 17:46:00,32.6,21.0,29.91,NNW,346,0.0,0.0,63,0.00,,,0.01,TxWx,2013-02-24 23:46:00,
2013-02-24 17:51:00,32.5,20.0,29.91,NNW,335,0.0,0.0,64,0.00,,,0.01,TxWx,2013-02-24 23:51:00,
2013-02-24 17:57:00,32.3,21.0,29.91,NNW,332,0.0,0.0,65,0.00,,,0.01,TxWx,2013-02-24 23:57:00,
2013-02-24 18:02:00,32.1,21.0,29.91,North,1,0.0,0.0,66,0.00,,,0.01,TxWx,2013-02-25 00:02:00,
2013-02-24 18:07:00,32.0,21.0,29.91,NW,325,0.0,0.0,67,0.00,,,0.01,TxWx,2013-02-25 00:07:00,
2013-02-24 18:12:00,31.7,21.0,29.91,NNW,327,0.0,0.0,68,0.00,,,0.01,TxWx,2013-02-25 00:12:00,
2013-02-24 18:17:00,31.6,22.0,29.91,NW,325,0.0,0.0,69,0.00,,,0.01,TxWx,2013-02-25 00:17:00,
2013-02-24 18:23:00,31.4,21.0,29.92,NW,326,0.0,0.0,70,0.00,,,0.01,TxWx,2013-02-25 00:23:00,
2013-02-24 18:28:00,31.1,21.0,29.92,NNW,327,0.0,0.0,70,0.00,,,0.01,TxWx,2013-02-25 00:28:00,
2013-02-24 18:33:00,30.9,21.0,29.92,NNW,343,0.0,0.0,70,0.00,,,0.01,TxWx,2013-02-25 00:33:00,
2013-02-24 18:38:00,30.7,22.0,29.92,NNW,340,0.0,0.0,71,0.00,,,0.01,TxWx,2013-02-25 00:38:00,
2013-02-24 18:44:00,30.4,21.0,29.92,North,351,0.0,0.0,71,0.00,,,0.01,TxWx,2013-02-25 00:44:00,
2013-02-24 18:49:00,30.2,21.0,29.92,North,352,0.0,0.0,72,0.00,,,0.01,TxWx,2013-02-25 00:49:00,
2013-02-24 18:54:00,29.7,21.0,29.92,North,349,0.0,0.0,73,0.00,,,0.01,TxWx,2013-02-25 00:54:00,
2013-02-24 18:59:00,29.6,22.0,29.92,North,351,0.0,0.0,74,0.00,,,0.01,TxWx,2013-02-25 00:59:00,
2013-02-24 19:04:00,29.7,22.0,29.93,North,350,0.0,0.0,74,0.00,,,0.01,TxWx,2013-02-25 01:04:00,
2013-02-24 19:09:00,29.6,22.0,29.93,North,349,0.0,0.0,74,0.00,,,0.01,TxWx,2013-02-25 01:09:00,
2013-02-24 19:14:00,29.5,21.0,29.93,North,349,0.0,0.0,75,0.00,,,0.01,TxWx,2013-02-25 01:14:00,
2013-02-24 19:20:00,29.3,21.0,29.93,North,349,0.0,0.0,75,0.00,,,0.01,TxWx,2013-02-25 01:20:00,
2013-02-24 19:25:00,29.2,21.0,29.93,NNW,348,0.0,0.0,75,0.00,,,0.01,TxWx,2013-02-25 01:25:00,
2013-02-24 19:30:00,28.9,21.0,29.93,North,349,0.0,0.0,75,0.00,,,0.01,TxWx,2013-02-25 01:30:00,
2013-02-24 19:35:00,28.7,21.0,29.93,North,349,0.0,0.0,76,0.00,,,0.01,TxWx,2013-02-25 01:35:00,
2013-02-24 19:40:00,28.7,21.0,29.93,North,349,0.0,0.0,76,0.00,,,0.01,TxWx,2013-02-25 01:40:00,
2013-02-24 19:46:00,28.6,22.0,29.93,NNW,348,0.0,0.0,77,0.00,,,0.01,TxWx,2013-02-25 01:46:00,
2013-02-24 19:51:00,28.6,22.0,29.93,NNW,342,0.0,0.0,77,0.00,,,0.01,TxWx,2013-02-25 01:51:00,
2013-02-24 19:56:00,28.6,22.0,29.93,NNW,342,0.0,0.0,77,0.00,,,0.01,TxWx,2013-02-25 01:56:00,
2013-02-24 20:02:00,28.4,21.0,29.93,NNW,339,0.0,0.0,77,0.00,,,0.01,TxWx,2013-02-25 02:02:00,
2013-02-24 20:07:00,28.3,21.0,29.93,NNW,342,0.0,0.0,78,0.00,,,0.01,TxWx,2013-02-25 02:07:00,
2013-02-24 20:12:00,28.4,21.0,29.94,NNW,339,0.0,0.0,78,0.00,,,0.01,TxWx,2013-02-25 02:12:00,
2013-02-24 20:17:00,28.5,21.0,29.94,NNW,342,0.0,0.0,78,0.00,,,0.01,TxWx,2013-02-25 02:17:00,
2013-02-24 20:22:00,28.5,22.0,29.93,NNW,340,0.0,0.0,77,0.00,,,0.01,TxWx,2013-02-25 02:22:00,
2013-02-24 20:28:00,28.4,21.0,29.93,NNW,339,0.0,0.0,77,0.00,,,0.01,TxWx,2013-02-25 02:28:00,
2013-02-24 20:33:00,28.5,21.0,29.93,NNW,342,0.0,0.0,77,0.00,,,0.01,TxWx,2013-02-25 02:33:00,
2013-02-24 20:38:00,28.5,21.0,29.93,NNW,340,0.0,0.0,77,0.00,,,0.01,TxWx,2013-02-25 02:38:00,
2013-02-24 20:47:00,28.4,21.0,29.94,NNW,341,0.0,0.0,77,0.00,,,0.01,TxWx,2013-02-25 02:47:00,
2013-02-24 20:52:00,28.2,21.0,29.94,NNW,339,0.0,0.0,77,0.00,,,0.01,TxWx,2013-02-25 02:52:00,
2013-02-24 20:57:00,28.0,21.0,29.94,NNW,337,0.0,0.0,78,0.00,,,0.01,TxWx,2013-02-25 02:57:00,
2013-02-24 21:03:00,27.8,21.0,29.94,NNW,338,0.0,0.0,79,0.00,,,0.01,TxWx,2013-02-25 03:03:00,
2013-02-24 21:08:00,27.7,21.0,29.94,NNW,338,0.0,0.0,79,0.00,,,0.01,TxWx,2013-02-25 03:08:00,
2013-02-24 21:13:00,27.7,21.0,29.94,NNW,335,0.0,0.0,79,0.00,,,0.01,TxWx,2013-02-25 03:13:00,
2013-02-24 21:18:00,27.4,20.0,29.94,NNW,334,0.0,0.0,79,0.00,,,0.01,TxWx,2013-02-25 03:18:00,
2013-02-24 21:23:00,27.3,21.0,29.94,NNW,335,0.0,0.0,80,0.00,,,0.01,TxWx,2013-02-25 03:23:00,
2013-02-24 21:28:00,27.4,21.0,29.94,NNW,335,0.0,0.0,80,0.00,,,0.01,TxWx,2013-02-25 03:28:00,
2013-02-24 21:33:00,27.4,21.0,29.94,NNW,335,0.0,0.0,80,0.00,,,0.01,TxWx,2013-02-25 03:33:00,
2013-02-24 21:38:00,27.3,21.0,29.94,NNW,337,0.0,0.0,80,0.00,,,0.01,TxWx,2013-02-25 03:38:00,
2013-02-24 21:43:00,27.0,21.0,29.94,NNW,335,0.0,0.0,80,0.00,,,0.01,TxWx,2013-02-25 03:43:00,
2013-02-24 21:49:00,26.8,21.0,29.94,NNW,336,0.0,0.0,80,0.00,,,0.01,TxWx,2013-02-25 03:49:00,
2013-02-24 21:54:00,26.7,21.0,29.94,NNW,335,0.0,0.0,81,0.00,,,0.01,TxWx,2013-02-25 03:54:00,
2013-02-24 21:59:00,26.6,21.0,29.94,NNW,335,0.0,0.0,81,0.00,,,0.01,TxWx,2013-02-25 03:59:00,
2013-02-24 22:04:00,26.5,20.0,29.94,NNW,336,0.0,0.0,82,0.00,,,0.01,TxWx,2013-02-25 04:04:00,
2013-02-24 22:09:00,26.5,21.0,29.94,NNW,335,0.0,0.0,82,0.00,,,0.01,TxWx,2013-02-25 04:09:00,
2013-02-24 22:14:00,26.4,20.0,29.94,NNW,335,0.0,0.0,82,0.00,,,0.01,TxWx,2013-02-25 04:14:00,
2013-02-24 22:20:00,26.4,20.0,29.94,NNW,334,0.0,0.0,82,0.00,,,0.01,TxWx,2013-02-25 04:20:00,
2013-02-24 22:25:00,26.3,20.0,29.94,NNW,335,0.0,0.0,82,0.00,,,0.01,TxWx,2013-02-25 04:25:00,
2013-02-24 22:30:00,26.3,20.0,29.94,NNW,337,0.0,0.0,82,0.00,,,0.01,TxWx,2013-02-25 04:30:00,
2013-02-24 22:35:00,26.3,20.0,29.94,NNW,338,0.0,0.0,83,0.00,,,0.01,TxWx,2013-02-25 04:35:00,
2013-02-24 22:41:00,26.4,20.0,29.94,NNW,337,0.0,0.0,83,0.00,,,0.01,TxWx,2013-02-25 04:41:00,
2013-02-24 22:46:00,26.3,20.0,29.94,NNW,343,0.0,0.0,83,0.00,,,0.01,TxWx,2013-02-25 04:46:00,
2013-02-24 22:51:00,26.1,20.0,29.94,NNW,342,0.0,0.0,82,0.00,,,0.01,TxWx,2013-02-25 04:51:00,
2013-02-24 22:56:00,25.8,20.0,29.94,NNW,339,0.0,0.0,82,0.00,,,0.01,TxWx,2013-02-25 04:56:00,
2013-02-24 23:00:00,25.7,21.0,29.94,NNW,339,0.0,0.0,83,0.00,,,0.01,TxWx,2013-02-25 05:00:00,
2013-02-24 23:01:00,25.6,21.0,29.95,NNW,348,0.0,0.0,83,0.00,,,0.01,TxWx,2013-02-25 05:01:00,
2013-02-24 23:06:00,25.6,21.0,29.94,North,349,0.0,0.0,84,0.00,,,0.00,TxWx,2013-02-25 05:06:00,
2013-02-24 23:11:00,25.6,21.0,29.95,North,349,0.0,0.0,84,0.00,,,0.00,TxWx,2013-02-25 05:11:00,
2013-02-24 23:16:00,25.5,20.0,29.94,North,349,0.0,0.0,84,0.00,,,0.00,TxWx,2013-02-25 05:16:00,
2013-02-24 23:21:00,25.4,20.0,29.94,North,349,0.0,0.0,84,0.00,,,0.00,TxWx,2013-02-25 05:21:00,
2013-02-24 23:27:00,25.2,20.0,29.95,North,349,0.0,0.0,84,0.00,,,0.00,TxWx,2013-02-25 05:27:00,
2013-02-24 23:32:00,25.0,20.0,29.95,North,349,0.0,0.0,84,0.00,,,0.00,TxWx,2013-02-25 05:32:00,
2013-02-24 23:37:00,24.8,20.0,29.95,North,350,0.0,0.0,84,0.00,,,0.00,TxWx,2013-02-25 05:37:00,
2013-02-24 23:42:00,24.3,19.0,29.95,North,349,0.0,0.0,85,0.00,,,0.00,TxWx,2013-02-25 05:42:00,
2013-02-24 23:48:00,23.9,19.0,29.95,North,349,0.0,0.0,85,0.00,,,0.00,TxWx,2013-02-25 05:48:00,
2013-02-24 23:53:00,23.5,19.0,29.95,North,350,0.0,0.0,85,0.00,,,0.00,TxWx,2013-02-25 05:53:00,
2013-02-24 23:58:00,23.4,18.0,29.94,North,351,0.0,0.0,85,0.00,,,0.00,TxWx,2013-02-25 05:58:00,